Weather History for LTBA - January, 2013

Change the Weather History Date:

Saturday, January 12, 2013

  Actual Average Record
Temperature  
Mean Temperature 46 °F -  
Max Temperature 52 °F 46 °F 55 °F (1999)
Min Temperature 39 °F 37 °F 32 °F (2003)
Degree Days  
Heating Degree Days 20    
Moisture  
Dew Point 43 °F    
Average Humidity 86    
Maximum Humidity 100    
Minimum Humidity 67    
Precipitation  
Precipitation 0.43 in - - ()
Sea Level Pressure  
Sea Level Pressure 29.90 in    
Wind  
Wind Speed 10 mph ()    
Max Wind Speed 26 mph    
Max Gust Speed -    
Visibility 5.4 miles    
Events Rain    
Averages and records for this station are not official NWS values.
T = Trace of Precipitation, MM = Missing Value Source: Averaged Metar Reports

Daily Weather History Graph

Daily Weather History Graph

Search for Another Location

Airport or City:

Trip Planner

Search our weather history database for the weather conditions in past years. The results will help you decide how hot, cold, wet, or windy it might be!

Date:

Astronomy

Jan. 12, 2013 Rise Set
Actual Time 7:28 AM EET 4:57 PM EET
Civil Twilight 6:58 AM EET 5:28 PM EET
Nautical Twilight 6:24 AM EET 6:02 PM EET
Astronomical Twilight 5:50 AM EET 6:35 PM EET
Moon 7:32 AM EET (1/12) 6:04 PM EET (1/12)
Length of Visible Light 10h 30m
Length of Day
9h 29m
New Moon, 1% of the Moon is Illuminated
Jan 12
New Moon
Jan 19
First Quarter
Jan 27
Full
Feb 3
Last Quarter
Feb 10
New

Hourly Weather History & Observations

Time (EET) Temp. Windchill Dew Point Humidity Pressure Visibility Wind Dir Wind Speed Gust Speed Precip Events Conditions
12:20 AM 48.2 °F - 42.8 °F 82% 29.89 in 4.3 mi SSW 11.5 mph - N/A Rain Light Rain Showers
12:50 AM 48.2 °F - 42.8 °F 82% 29.89 in 4.3 mi SSW 13.8 mph - N/A Rain Light Rain Showers
1:20 AM 46.4 °F 40.4 °F 42.8 °F 87% 29.89 in 5.0 mi SSW 13.8 mph - N/A Rain Light Rain Showers
1:50 AM 48.2 °F - 42.8 °F 82% 29.89 in 3.7 mi SSW 15.0 mph - N/A Rain Light Rain Showers
2:00 AM 47 °F - 42 °F 78% 29.90 in 4 mi SSW 15.0 mph - - Rain Light Rain Showers
2:20 AM 48.2 °F - 42.8 °F 82% 29.89 in 3.7 mi SSW 13.8 mph - N/A Rain Light Rain Showers
2:50 AM 48.2 °F - 42.8 °F 82% 29.89 in 3.7 mi WSW 6.9 mph - N/A Rain Light Rain Showers
3:20 AM 46.4 °F 45.2 °F 44.6 °F 93% 29.89 in 4.3 mi WNW 3.5 mph - N/A Rain Light Rain Showers
3:50 AM 48.2 °F - 44.6 °F 87% 29.89 in 3.7 mi West 6.9 mph - N/A Rain Light Rain Showers
4:20 AM 48.2 °F - 44.6 °F 87% 29.89 in 3.7 mi WSW 5.8 mph - N/A Rain Light Rain Showers
4:50 AM 46.4 °F 44.3 °F 44.6 °F 93% 29.89 in 6.2 mi SSW 4.6 mph - N/A   Mostly Cloudy
5:20 AM 48.2 °F - 42.8 °F 82% 29.89 in 6.2 mi SW 4.6 mph - N/A   Mostly Cloudy
5:50 AM 48.2 °F - 42.8 °F 82% 29.89 in 4.3 mi SSW 3.5 mph - N/A Rain Light Rain Showers
6:20 AM 48.2 °F - 42.8 °F 82% 29.89 in 4.3 mi South 8.1 mph - N/A Rain Light Rain Showers
6:50 AM 48.2 °F - 42.8 °F 82% 29.89 in 5.0 mi SSE 3.5 mph - N/A Rain Light Rain Showers
7:20 AM 50.0 °F - 42.8 °F 76% 29.89 in 6.2 mi ESE 5.8 mph - N/A   Mostly Cloudy
7:50 AM 50.0 °F - 42.8 °F 76% 29.89 in 6.2 mi SSE 6.9 mph - N/A Rain Light Rain Showers
8:00 AM 50 °F - 42 °F 67% 29.90 in 6 mi SSE 6.9 mph - - Rain Light Rain Showers
8:20 AM 51.8 °F - 42.8 °F 71% 29.89 in 5.0 mi SSE 4.6 mph - N/A Rain Light Rain Showers
8:50 AM 50.0 °F - 42.8 °F 76% 29.89 in 5.0 mi Variable 2.3 mph - N/A Rain Light Rain Showers
9:20 AM 50.0 °F - 42.8 °F 76% 29.89 in 3.7 mi Variable 1.2 mph - N/A Rain Light Rain Showers
9:50 AM 50.0 °F - 44.6 °F 82% 29.89 in 3.7 mi Variable 1.2 mph - N/A Rain Light Rain Showers
10:20 AM 51.8 °F - 42.8 °F 71% 29.89 in 6.2 mi Variable 5.8 mph - N/A   Mostly Cloudy
10:50 AM 51.8 °F - 42.8 °F 71% 29.89 in 6.2 mi SSE 3.5 mph - N/A   Mostly Cloudy
11:20 AM 50.0 °F - 42.8 °F 76% 29.89 in 6.2 mi East 4.6 mph - N/A   Mostly Cloudy
11:50 AM 50.0 °F - 42.8 °F 76% 29.89 in 6.2 mi East 3.5 mph - N/A Rain Light Rain Showers
12:20 PM 50.0 °F - 44.6 °F 82% 29.86 in 6.2 mi ENE 3.5 mph - N/A Rain Light Rain Showers
12:50 PM 48.2 °F - 44.6 °F 87% 29.86 in 6.2 mi East 6.9 mph - N/A Rain Light Rain Showers
1:20 PM 48.2 °F - 46.4 °F 93% 29.86 in 6.2 mi ESE 6.9 mph - N/A Rain Light Rain Showers
1:50 PM 48.2 °F - 48.2 °F 100% 29.83 in 6.2 mi ESE 10.4 mph - N/A Rain Light Rain Showers
2:00 PM 48 °F - 48 °F 98% 29.86 in 6 mi ESE 10.4 mph - - Rain Light Rain Showers
2:20 PM 48.2 °F - 46.4 °F 93% 29.86 in 6.2 mi East 8.1 mph - N/A Rain Light Rain Showers
2:50 PM 48.2 °F - 48.2 °F 100% 29.86 in 6.2 mi ESE 8.1 mph - N/A Rain Light Rain Showers
3:20 PM 48.2 °F - 48.2 °F 100% 29.83 in 6.2 mi ESE 9.2 mph - N/A Rain Light Rain Showers
3:50 PM 50.0 °F - 48.2 °F 94% 29.83 in 6.2 mi ESE 4.6 mph - N/A Rain Light Rain Showers
4:20 PM 50.0 °F - 48.2 °F 94% 29.83 in 6.2 mi SE 6.9 mph - N/A Rain Light Rain Showers
4:50 PM 50.0 °F - 48.2 °F 94% 29.83 in 6.2 mi ESE 5.8 mph - N/A Rain Light Rain Showers
5:20 PM 50.0 °F - 48.2 °F 94% 29.86 in 6.2 mi NW 4.6 mph - N/A Rain Light Rain Showers
5:50 PM 46.4 °F 40.4 °F 46.4 °F 100% 29.86 in 6.2 mi NNW 13.8 mph - N/A Rain Light Rain Showers
6:20 PM 46.4 °F 40.1 °F 44.6 °F 93% 29.89 in 6.2 mi NW 15.0 mph - N/A Rain Light Rain Showers
6:50 PM 44.6 °F 35.9 °F 42.8 °F 93% 29.89 in 3.7 mi NNW 23.0 mph - N/A Rain Light Rain Showers
7:20 PM 44.6 °F 35.3 °F 41.0 °F 87% 29.89 in 3.7 mi North 26.5 mph - N/A Rain Light Rain Showers
7:50 PM 42.8 °F 33.3 °F 39.2 °F 87% 29.92 in 3.7 mi NNW 24.2 mph - N/A Rain Light Rain Showers
8:00 PM 42 °F - 39 °F 85% 29.94 in 4 mi NNW 24.2 mph - - Rain Light Rain Showers
8:20 PM 39.2 °F 28.3 °F 37.4 °F 93% 29.92 in 6.2 mi NNW 25.3 mph - N/A Rain Light Rain Showers
8:50 PM 39.2 °F 28.5 °F 35.6 °F 87% 29.95 in 6.2 mi NNW 24.2 mph - N/A   Mostly Cloudy
9:20 PM 39.2 °F 28.5 °F 35.6 °F 87% 29.95 in 6.2 mi NNW 24.2 mph - N/A   Mostly Cloudy
9:50 PM 39.2 °F 28.5 °F 35.6 °F 87% 29.98 in 6.2 mi North 24.2 mph - N/A   Mostly Cloudy
10:20 PM 39.2 °F 29.0 °F 35.6 °F 87% 30.01 in 6.2 mi NNW 21.9 mph - N/A   Mostly Cloudy
10:50 PM 39.2 °F 29.3 °F 35.6 °F 87% 30.01 in 6.2 mi NNW 20.7 mph - N/A Rain Light Rain Showers
11:20 PM 39.2 °F 29.6 °F 35.6 °F 87% 30.04 in 6.2 mi NNW 19.6 mph - N/A Rain Light Rain Showers
11:50 PM 39.2 °F 29.8 °F 35.6 °F 87% 30.04 in 6.2 mi NNW 18.4 mph - N/A Rain Light Rain Showers